[[{"header":{"parameterUnit":"m.s-1","parameterCategory":1,"la1":30.2992,"la2":30.254,"lo1":-89.0895,"lo2":-89.0443,"dy":0.0025,"dx":0.0025,"nx":19,"ny":19,"refTime":"2026-05-08T03:00:00:Z","depth":0,"parameterNumber":2,"parameterNumberName":"U-component_of_WINDS"},"data":[0,0,0,-4.4339,-4.4346,-4.4707,-4.4708,-4.5145,-4.5149,0,0,0,0,0,0,0,0,0,0,0,-4.4219,-4.4222,-4.4338,-4.4347,-4.4706,-4.4708,-4.5144,-4.5149,0,0,0,0,0,0,0,0,0,0,0,-4.4218,-4.4221,-4.4224,-4.4348,-4.4706,-4.4708,-4.5143,-4.488,0,0,0,0,0,0,0,0,0,0,-4.4534,-4.4412,-4.422,-4.4224,-4.435,-4.4706,-4.4708,-4.4867,-4.4896,-4.4972,0,-4.5038,0,-4.51,-4.5176,-4.5178,0,0,0,-4.4356,-4.4388,-4.4496,-4.4225,-4.4353,-4.4705,-4.4547,-4.4884,-4.4916,-4.501,-4.5044,-4.5061,-4.5107,-4.5179,-4.5181,-4.5591,-4.5592,0,0,-4.4336,-4.4277,-4.4474,-4.4517,-4.4462,-4.4535,-4.4558,-4.4904,-4.4936,-4.5046,-4.5072,-4.5115,-4.5182,-4.5185,-4.559,-4.5591,0,0,0,-4.4273,-4.4262,-4.4363,-4.4498,-4.4565,-4.4545,-4.4571,-4.4921,-4.4959,-4.5077,-4.512,-4.5184,-4.5189,-4.5588,-4.559,-4.5604,0,0,0,-4.4261,-4.4226,-4.4354,-4.4322,-4.4558,-4.4748,-4.458,-4.4935,-4.4976,-4.5117,-4.5185,-4.5194,-4.5587,-4.5589,-4.5601,-4.562,0,0,0,-4.42,-4.4219,-4.4267,-4.4318,-4.4471,-4.4744,-4.4802,-4.4945,-4.5002,-4.5178,-4.5195,-4.5586,-4.5589,-4.5598,-4.5615,-4.5708,0,0,0,-4.4117,-4.4275,-4.4266,-4.4459,-4.4467,-4.4751,-4.48,-4.5015,-4.5168,-4.5187,-4.5587,-4.559,-4.5596,-4.5612,-4.5704,-4.5774,-4.5798,0,0,-4.4283,-4.4293,-4.4411,-4.4414,-4.4683,-4.4701,-4.4973,-4.5169,-4.524,-4.547,-4.5481,-4.5602,-4.5614,-4.5707,-4.5962,-4.598,0,0,0,-4.4444,-4.4527,-4.4612,-4.4755,-4.491,-4.5042,-4.5203,-4.5276,-4.5474,-4.5347,-4.5665,-4.5674,-4.5731,-4.5767,-4.5783,-4.5834,-4.5605,-4.5605,-4.5605,-4.4591,-4.4674,-4.4874,-4.4999,-4.5138,-4.5302,-4.5421,-4.5547,-4.559,-4.5664,-4.5731,-4.5875,-4.5915,-4.5928,-4.598,-4.5778,-4.5778,-4.5778,-4.5778,-4.4839,-4.4968,-4.5023,-4.5235,-4.5321,-4.5501,-4.5665,-4.5689,-4.5867,-4.5832,-4.5886,-4.5836,-4.5946,-4.5995,-4.578,-4.5779,-4.5779,-4.5779,-4.5779,-4.4941,-4.5018,-4.5104,-4.5319,-4.5475,-4.5598,-4.5766,-4.5839,-4.5909,-4.5963,-4.604,-4.604,-4.6046,-4.5995,-4.5996,-4.5996,-4.5997,-4.5997,-4.5998,-4.5012,-4.5109,-4.5242,-4.5419,-4.552,-4.5662,-4.5829,-4.593,-4.606,-4.6099,-4.61,-4.6133,-4.5943,-4.5891,-4.6006,-4.6004,-4.6003,-4.6002,-4.6002,-4.5226,-4.5189,-4.5394,-4.5495,-4.5707,-4.5856,-4.5948,-4.6147,-4.6242,-4.6321,-4.6345,-4.6193,-4.6208,-4.6196,-4.6153,-4.6329,-4.6329,-4.6329,-4.6329,-4.5309,-4.5325,-4.555,-4.5706,-4.5868,-4.5971,-4.6198,-4.6329,-4.6459,-4.6522,-4.6508,-4.6459,-4.6443,-4.6467,-4.6449,-4.641,-4.6647,-4.6648,-4.6648,-4.5443,-4.5478,-4.5657,-4.5784,-4.5955,-4.61,-4.6315,-4.649,-4.663,-4.6662,-4.6572,-4.6558,-4.648,-4.6451,-4.6476,-4.6447,-4.6377,0,0]},{"header":{"parameterUnit":"m.s-1","parameterCategory":1,"la1":30.2992,"la2":30.254,"lo1":-89.0895,"lo2":-89.0443,"dy":0.0025,"dx":0.0025,"nx":19,"ny":19,"refTime":"2026-05-08T03:00:00:Z","depth":0,"parameterNumber":3,"parameterNumberName":"V-component_of_WINDS"},"data":[0,0,0,2.7206,2.7206,2.7162,2.7162,2.7122,2.7122,0,0,0,0,0,0,0,0,0,0,0,2.7231,2.7231,2.7207,2.7206,2.7162,2.7162,2.7122,2.7122,0,0,0,0,0,0,0,0,0,0,0,2.7231,2.7231,2.7231,2.7206,2.7162,2.7162,2.7122,2.7149,0,0,0,0,0,0,0,0,0,0,2.7188,2.7222,2.7231,2.7231,2.7205,2.7162,2.7162,2.715,2.7147,2.715,0,2.7156,0,2.7139,2.712,2.712,0,0,0,2.7196,2.7224,2.7203,2.7231,2.7205,2.7162,2.7179,2.7148,2.7145,2.7146,2.7155,2.7153,2.7138,2.712,2.712,2.7173,2.7174,0,0,2.7199,2.7228,2.7205,2.7202,2.7212,2.718,2.7178,2.7146,2.7157,2.7155,2.7152,2.7138,2.712,2.712,2.7172,2.7173,0,0,0,2.7212,2.723,2.7209,2.7204,2.7195,2.7179,2.7176,2.7158,2.7149,2.7152,2.7137,2.712,2.712,2.7171,2.7173,2.7236,0,0,0,2.7213,2.7238,2.721,2.7228,2.7196,2.7176,2.719,2.7151,2.7147,2.7137,2.712,2.712,2.7171,2.7172,2.7232,2.7259,0,0,0,2.723,2.7239,2.7237,2.7229,2.7212,2.7176,2.7165,2.715,2.7139,2.712,2.7119,2.717,2.7172,2.7229,2.7253,2.7282,0,0,0,2.7254,2.7291,2.7239,2.7274,2.7213,2.7217,2.7165,2.7166,2.7158,2.712,2.7171,2.7172,2.7228,2.725,2.7279,2.731,2.7326,0,0,2.7316,2.7299,2.7318,2.727,2.7292,2.7222,2.7252,2.7214,2.7185,2.7178,2.7179,2.7233,2.7253,2.7281,2.741,2.7424,0,0,0,2.7347,2.7361,2.736,2.7357,2.7333,2.7315,2.7272,2.7259,2.7253,2.7188,2.7251,2.7262,2.7277,2.729,2.7302,2.7313,2.7181,2.718,2.718,2.7471,2.7437,2.7466,2.7427,2.7425,2.7384,2.7378,2.7354,2.7314,2.7331,2.7327,2.741,2.7427,2.7435,2.7448,2.7343,2.7343,2.7343,2.7343,2.7557,2.757,2.7527,2.7538,2.7502,2.7511,2.7475,2.7449,2.7452,2.7409,2.742,2.7374,2.7451,2.746,2.7348,2.7347,2.7347,2.7346,2.7346,2.7632,2.7633,2.7621,2.7616,2.7617,2.7577,2.7584,2.755,2.7517,2.7529,2.7522,2.7521,2.7514,2.7529,2.7529,2.753,2.753,2.753,2.753,2.7713,2.7698,2.7709,2.7694,2.769,2.768,2.7645,2.764,2.7625,2.7599,2.7598,2.7559,2.7467,2.7443,2.7534,2.7534,2.7533,2.7533,2.7532,2.7807,2.7783,2.78,2.7797,2.7778,2.7782,2.7742,2.7735,2.7726,2.7731,2.7693,2.7631,2.7609,2.7599,2.7579,2.77,2.77,2.7701,2.7701,2.7869,2.7858,2.787,2.7868,2.7862,2.783,2.7852,2.7828,2.7797,2.779,2.7769,2.7741,2.7733,2.7716,2.7704,2.7685,2.783,2.783,2.783,2.7925,2.7913,2.7937,2.7911,2.7896,2.7884,2.7904,2.7903,2.7864,2.7835,2.7784,2.7778,2.7733,2.772,2.7683,2.7666,2.7629,0,0]}]]